Racine, WI

10:57 AM CST on December 15, 2017 (GMT -0600)
Batten

Weather History for KRAC - February, 2014

Change the Weather History Date:

Tuesday, February 18, 2014

  Actual Average Record
Temperature  
Mean Temperature 29 °F -  
Max Temperature 46 °F 32 °F 66 °F (2017)
Min Temperature 12 °F 19 °F -11 °F (2006)
Degree Days  
Heating Degree Days 36    
Moisture  
Dew Point 22 °F    
Average Humidity 79    
Maximum Humidity 100    
Minimum Humidity 44    
Precipitation  
Precipitation 0.00 in - - ()
Sea Level Pressure  
Sea Level Pressure 29.82 in    
Wind  
Wind Speed 9 mph (SSW)    
Max Wind Speed 22 mph    
Max Gust Speed 30 mph    
Visibility 6 miles    
Events      
Averages and records for this station are not official NWS values.
T = Trace of Precipitation, MM = Missing Value Source: NWS Daily Summary

Daily Weather History Graph

Daily Weather History Graph

Search for Another Location

Airport or City:

Trip Planner

Search our weather history database for the weather conditions in past years. The results will help you decide how hot, cold, wet, or windy it might be!

Date:

Astronomy

Feb. 18, 2014 Rise Set
Actual Time 6:44 AM CST 5:26 PM CST
Civil Twilight 6:15 AM CST 5:55 PM CST
Nautical Twilight 5:42 AM CST 6:28 PM CST
Astronomical Twilight 5:09 AM CST 7:01 PM CST
Moon 9:26 PM CST (2/18) 8:10 AM CST (2/18)
Length of Visible Light 11h 40m
Length of Day
10h 42m
Waning Gibbous, 87% of the Moon is Illuminated
Feb 18
Waning Gibbous
Feb 22
Last Quarter
Mar 1
New
Mar 8
First Quarter
Mar 16
Full

Hourly Weather History & Observations

Time (CST) Temp. Windchill Dew Point Humidity Pressure Visibility Wind Dir Wind Speed Gust Speed Precip Events Conditions
12:24 AM 21.9 °F 11.7 °F 17.1 °F 82% 29.81 in 5.0 mi West 9.2 mph - N/A   Haze
12:53 AM 21.9 °F 12.5 °F 17.1 °F 82% 29.86 in 5.0 mi WNW 8.1 mph - N/A   Haze
1:53 AM 21.9 °F 11.0 °F 17.1 °F 82% 29.89 in 5.0 mi WNW 10.4 mph - N/A   Haze
2:53 AM 23.0 °F 13.9 °F 17.1 °F 78% 29.91 in 6.0 mi WNW 8.1 mph - N/A   Haze
3:01 AM 23.0 °F 13.9 °F 17.1 °F 78% 29.88 in 6.0 mi WNW 8.1 mph - N/A   Haze
3:53 AM 23.0 °F 15.8 °F 17.1 °F 78% 29.94 in 6.0 mi WNW 5.8 mph - N/A   Haze
4:26 AM 23.0 °F 17.0 °F 18.0 °F 81% 29.92 in 6.0 mi West 4.6 mph - N/A   Haze
4:53 AM 21.0 °F - 16.0 °F 81% 29.95 in 5.0 mi Calm Calm - N/A   Haze
5:15 AM 19.0 °F - 16.0 °F 88% 29.90 in 4.0 mi Calm Calm - N/A   Partly Cloudy
5:53 AM 16.0 °F 10.4 °F 12.9 °F 88% 29.93 in 3.0 mi SSE 3.5 mph - N/A   Clear
6:03 AM 12.0 °F 5.9 °F 10.9 °F 95% 29.89 in 2.0 mi ESE 3.5 mph - N/A   Clear
6:11 AM 14.0 °F 8.2 °F 10.0 °F 84% 29.90 in 1.5 mi South 3.5 mph - N/A   Clear
6:37 AM 15.1 °F 6.4 °F 12.9 °F 91% 29.91 in 2.0 mi SSW 5.8 mph - N/A   Clear
6:48 AM 14.0 °F 5.1 °F 14.0 °F 100% 29.91 in 1.5 mi South 5.8 mph - N/A   Clear
6:53 AM 15.1 °F 7.7 °F 12.9 °F 91% 29.95 in 1.5 mi South 4.6 mph - N/A   Clear
7:46 AM 19.9 °F 11.1 °F 18.0 °F 92% 29.92 in 2.0 mi South 6.9 mph - N/A   Clear
7:53 AM 19.9 °F 11.1 °F 18.0 °F 92% 29.95 in 2.0 mi South 6.9 mph - N/A   Clear
8:33 AM 27.0 °F 17.3 °F 21.9 °F 81% 29.91 in 3.0 mi South 10.4 mph - N/A   Haze
8:53 AM 28.0 °F 17.5 °F 24.1 °F 85% 29.92 in 3.0 mi SSE 12.7 mph - N/A   Clear
9:09 AM 28.9 °F 17.7 °F 25.0 °F 85% 29.88 in 2.5 mi South 15.0 mph 21.9 mph N/A   Partly Cloudy
9:31 AM 30.0 °F 16.9 °F 26.1 °F 85% 29.88 in 2.0 mi South 21.9 mph 29.9 mph N/A   Mostly Cloudy
9:41 AM 30.0 °F 17.5 °F 26.1 °F 85% 29.87 in 2.0 mi South 19.6 mph 26.5 mph N/A   Scattered Clouds
9:53 AM 30.0 °F 17.5 °F 26.1 °F 85% 29.88 in 2.0 mi South 19.6 mph 27.6 mph N/A   Partly Cloudy
10:17 AM 30.9 °F 19.4 °F 26.1 °F 82% 29.85 in 3.0 mi SSE 17.3 mph - N/A   Haze
10:53 AM 30.0 °F 19.5 °F 26.1 °F 85% 29.85 in 4.0 mi SSE 13.8 mph 24.2 mph N/A   Clear
11:53 AM 32.0 °F 19.8 °F 27.0 °F 82% 29.77 in 3.0 mi South 20.7 mph 28.8 mph N/A   Haze
12:53 PM 35.1 °F 24.5 °F 28.9 °F 78% 29.71 in 10.0 mi SSE 18.4 mph 26.5 mph N/A   Clear
1:53 PM 39.0 °F - 30.0 °F 70% 29.69 in 10.0 mi Calm Calm - N/A   Clear
2:53 PM 39.0 °F 36.8 °F 30.9 °F 73% 29.66 in 10.0 mi SSE 3.5 mph - N/A   Clear
3:53 PM 46.9 °F - 26.1 °F 44% 29.65 in 10.0 mi SSW 10.4 mph - N/A   Clear
4:53 PM 44.1 °F 36.8 °F 27.0 °F 51% 29.64 in 10.0 mi SW 16.1 mph 27.6 mph N/A   Clear
5:53 PM 43.0 °F 35.7 °F 27.0 °F 53% 29.65 in 10.0 mi SW 15.0 mph 23.0 mph N/A   Clear
6:53 PM 41.0 °F 33.5 °F 28.0 °F 60% 29.65 in 10.0 mi SW 13.8 mph - N/A   Clear
7:53 PM 39.9 °F 33.9 °F 28.0 °F 63% 29.65 in 10.0 mi WSW 9.2 mph - N/A   Clear
8:53 PM 39.9 °F 35.1 °F 28.0 °F 63% 29.64 in 10.0 mi WSW 6.9 mph - N/A   Clear
9:53 PM 39.0 °F 32.3 °F 28.0 °F 65% 29.64 in 10.0 mi WSW 10.4 mph - N/A   Clear
10:53 PM 36.0 °F 31.1 °F 28.0 °F 73% 29.65 in 10.0 mi WSW 5.8 mph - N/A   Clear
11:53 PM 33.1 °F 30.0 °F 26.1 °F 75% 29.67 in 10.0 mi SW 3.5 mph - N/A   Clear